[[{"header":{"parameterUnit":"m.s-1","parameterCategory":1,"la1":30.2991,"la2":30.254,"lo1":-89.0895,"lo2":-89.0444,"dy":0.0017,"dx":0.0017,"nx":28,"ny":28,"refTime":"2025-02-27T03:00:00:Z","depth":0,"parameterNumber":2,"parameterNumberName":"U-component_of_WINDS"},"data":[0,0,0,0,0,0,0,0,0,0,0,0,0,0,0,0,0,0,0,0,0,0,0,0,0,0,0,0,0,0,0,0,0,0,0,0,0,0,0,0,0,0,0,0,0,0,0,0,0,0,0,0,0,0,0,0,0,0,0.2661,0.2661,0,0.2665,0.2665,0.2665,0.2676,0.2676,0.2677,0.2677,0.2679,0.2679,0.2679,0,0,0,0,0,0,0,0,0,0,0,0,0,0.2662,0.2662,0.2661,0.2661,0.2661,0.2665,0.2665,0.2665,0.2676,0.2676,0.2677,0.2677,0.2679,0.2679,0.2679,0,0,0,0,0,0,0,0,0,0,0,0,0,0.2663,0.2662,0.2661,0.2667,0.2668,0.2665,0.2665,0.2665,0.2676,0.2676,0.2677,0.2677,0.2679,0.2679,0.2679,0.267,0,0,0.2678,0.2678,0,0,0,0,0,0,0,0,0.2663,0.2663,0.2666,0.2667,0.2667,0.2671,0.2666,0.2667,0.2676,0.2673,0.2677,0.2677,0.2676,0.2676,0.2676,0.2671,0.2671,0.2678,0.2678,0.2678,0.2678,0,0,0,0,0,0,0,0.2663,0.2663,0.2663,0.2666,0.2667,0.2669,0.267,0.2667,0.2672,0.2673,0.2674,0.2674,0.2676,0.2676,0.2676,0.2671,0.2678,0.2678,0.2678,0.2678,0.2659,0.2658,0,0,0,0,0,0,0.2662,0.2663,0.2663,0.2663,0.2666,0.2669,0.267,0.2669,0.2672,0.2673,0.2674,0.2675,0.2676,0.2676,0.2676,0.2666,0.2678,0.2678,0.2678,0.2659,0.2659,0.2658,0,0,0,0,0,0,0.2662,0.2662,0.2663,0.2663,0.2663,0.2669,0.2668,0.2669,0.2669,0.2673,0.2674,0.2673,0.2677,0.2677,0.2672,0.2667,0.2678,0.2677,0.266,0.2659,0.2659,0.2647,0,0,0,0,0,0,0.2662,0.2662,0.2659,0.2663,0.2663,0.2658,0.2668,0.2669,0.2669,0.267,0.2672,0.2673,0.2677,0.2672,0.2672,0.2667,0.2677,0.266,0.2659,0.2659,0.2648,0.2646,0.2645,0,0,0,0,0,0.2662,0.2655,0.2659,0.2659,0.266,0.2658,0.2658,0.2663,0.2668,0.2665,0.2668,0.2673,0.2668,0.2672,0.2671,0.2666,0.266,0.266,0.2659,0.2648,0.2646,0.2645,0,0,0,0,0,0,0.265,0.2656,0.266,0.2654,0.2656,0.266,0.2656,0.2661,0.2661,0.2662,0.2668,0.2668,0.2663,0.2664,0.2668,0.2658,0.2665,0.2664,0.2657,0.2655,0.2654,0.2653,0.2677,0,0,0,0,0,0.2647,0.2645,0.265,0.2645,0.2645,0.2651,0.265,0.2654,0.2656,0.2656,0.2659,0.2659,0.2658,0.2657,0.2656,0.2648,0.2649,0.2645,0.2643,0.2642,0.264,0.2637,0.2635,0.2656,0.2656,0.2656,0,0,0.2639,0.2643,0.2641,0.2642,0.2644,0.2642,0.2651,0.2648,0.2647,0.2656,0.2651,0.2653,0.2655,0.2649,0.2646,0.265,0.2635,0.2641,0.2639,0.2639,0.2635,0.2633,0.2632,0.2655,0.2655,0.2655,0,0,0.2625,0.2628,0.2624,0.2625,0.2628,0.2632,0.2631,0.2634,0.2636,0.2632,0.2639,0.2637,0.2634,0.2635,0.2635,0.2623,0.2627,0.2622,0.2613,0.2609,0.2608,0.2606,0.2601,0.2599,0.2621,0.2621,0.2621,0,0.2616,0.2614,0.2621,0.2618,0.2618,0.2627,0.2622,0.2623,0.2625,0.2625,0.2629,0.2626,0.2628,0.2622,0.2619,0.2619,0.2618,0.2621,0.2608,0.2606,0.2605,0.26,0.2598,0.262,0.262,0.262,0.2621,0,0.2602,0.26,0.2597,0.2599,0.2599,0.2595,0.2601,0.26,0.2604,0.2607,0.2603,0.2606,0.2605,0.2605,0.2608,0.2599,0.2602,0.2607,0.2613,0.2602,0.2598,0.2596,0.2619,0.262,0.262,0.262,0,0,0.2579,0.2586,0.2584,0.2586,0.259,0.2588,0.2585,0.2585,0.2584,0.2586,0.2583,0.2581,0.2586,0.2586,0.259,0.2587,0.2576,0.2592,0.2592,0.2589,0.2566,0.2562,0.256,0.258,0.2579,0.2579,0.2566,0,0.2566,0.2561,0.2567,0.2561,0.2559,0.2568,0.2565,0.2567,0.257,0.2569,0.2572,0.2571,0.2578,0.2578,0.2575,0.2578,0.2572,0.2579,0.2576,0.2576,0.2575,0.2557,0.2553,0.254,0.2564,0.2564,0.2564,0,0.2549,0.255,0.2544,0.2548,0.2548,0.2545,0.2546,0.2545,0.2548,0.255,0.2551,0.2556,0.2553,0.256,0.2556,0.2561,0.256,0.2562,0.2561,0.2561,0.2569,0.2555,0.2536,0.2534,0.2561,0.2561,0.2562,0,0.2532,0.2532,0.2528,0.2529,0.2535,0.2533,0.2535,0.2538,0.2538,0.2539,0.2539,0.2539,0.2539,0.2539,0.2544,0.2549,0.2539,0.2546,0.254,0.254,0.2537,0.2537,0.2516,0.2538,0.2538,0.2538,0.2538,0,0.2516,0.2511,0.2521,0.2519,0.2514,0.2522,0.2517,0.252,0.2522,0.252,0.2528,0.2526,0.2533,0.2532,0.2536,0.2532,0.2532,0.2533,0.2534,0.2532,0.2532,0.2531,0.2532,0.2537,0.2537,0.2537,0.2537,0,0.2496,0.2502,0.2499,0.2505,0.2506,0.2502,0.2507,0.2505,0.2509,0.2507,0.2507,0.2513,0.2512,0.2517,0.2517,0.252,0.2513,0.2516,0.2512,0.2513,0.2506,0.2506,0.2483,0.2481,0.2504,0.2504,0.2504,0,0.2485,0.2482,0.2488,0.2487,0.2489,0.2488,0.2488,0.2496,0.2496,0.2499,0.2496,0.2496,0.2496,0.2494,0.2498,0.2498,0.25,0.2492,0.25,0.2498,0.2499,0.2499,0.2498,0.249,0.249,0.249,0.2489,0,0.2464,0.2467,0.2468,0.2469,0.2469,0.247,0.2472,0.2471,0.248,0.2479,0.2478,0.2478,0.2479,0.2478,0.2479,0.2481,0.2486,0.2487,0.2486,0.2483,0.2481,0.2481,0.2507,0.2487,0.2488,0.2488,0.2488,0.2488,0.2447,0.2445,0.2449,0.2449,0.2452,0.2453,0.2452,0.2456,0.2456,0.2457,0.2461,0.246,0.2462,0.2464,0.2466,0.2464,0.2468,0.2466,0.2465,0.2464,0.2463,0.2482,0.2465,0.2465,0.2465,0.2465,0.2465,0,0.2426,0.243,0.243,0.2432,0.2432,0.2439,0.2441,0.2441,0.2439,0.2442,0.2442,0.2441,0.2441,0.2446,0.2446,0.2444,0.2446,0.2444,0.2443,0.2444,0.246,0.2461,0.2442,0.2442,0.2442,0.2442,0.2442,0.2442,0.2415,0.2412,0.2416,0.2414,0.2417,0.2416,0.2417,0.2418,0.242,0.2419,0.2419,0.2423,0.2426,0.2427,0.2427,0.2428,0.2427,0.2423,0.2426,0.244,0.2443,0.2445,0.2446,0.2424,0.2423,0.2409,0.2409,0.2409]},{"header":{"parameterUnit":"m.s-1","parameterCategory":1,"la1":30.2991,"la2":30.254,"lo1":-89.0895,"lo2":-89.0444,"dy":0.0017,"dx":0.0017,"nx":28,"ny":28,"refTime":"2025-02-27T03:00:00:Z","depth":0,"parameterNumber":3,"parameterNumberName":"V-component_of_WINDS"},"data":[0,0,0,0,0,0,0,0,0,0,0,0,0,0,0,0,0,0,0,0,0,0,0,0,0,0,0,0,0,0,0,0,0,0,0,0,0,0,0,0,0,0,0,0,0,0,0,0,0,0,0,0,0,0,0,0,0,0,-4.2783,-4.2783,0,-4.2818,-4.2818,-4.2818,-4.2749,-4.2746,-4.2744,-4.2742,-4.2776,-4.2779,-4.2782,0,0,0,0,0,0,0,0,0,0,0,0,0,-4.2656,-4.2659,-4.2783,-4.2783,-4.2784,-4.2817,-4.2818,-4.2818,-4.2749,-4.2746,-4.2744,-4.2741,-4.2775,-4.2778,-4.2782,0,0,0,0,0,0,0,0,0,0,0,0,0,-4.2703,-4.266,-4.2783,-4.2753,-4.2751,-4.2817,-4.2818,-4.2819,-4.275,-4.2746,-4.2743,-4.274,-4.2774,-4.2778,-4.2782,-4.2879,0,0,-4.2796,-4.2798,0,0,0,0,0,0,0,0,-4.27,-4.2708,-4.2757,-4.2756,-4.2753,-4.2775,-4.2785,-4.2839,-4.2751,-4.275,-4.2742,-4.2738,-4.2778,-4.2782,-4.2796,-4.288,-4.2882,-4.2797,-4.2799,-4.2801,-4.2803,0,0,0,0,0,0,0,-4.2697,-4.2706,-4.2797,-4.2758,-4.2756,-4.2738,-4.2741,-4.2795,-4.2783,-4.275,-4.2745,-4.275,-4.2776,-4.2792,-4.2796,-4.2882,-4.2797,-4.2801,-4.2803,-4.2805,-4.3048,-4.3052,0,0,0,0,0,0,-4.2698,-4.2704,-4.2795,-4.2798,-4.2718,-4.2743,-4.2746,-4.2772,-4.2782,-4.278,-4.2753,-4.2747,-4.2786,-4.2791,-4.2797,-4.2912,-4.2801,-4.2806,-4.2808,-4.3044,-4.3049,-4.3053,0,0,0,0,0,0,-4.2695,-4.2707,-4.2794,-4.2749,-4.2759,-4.2749,-4.2778,-4.2774,-4.2789,-4.2784,-4.2782,-4.2771,-4.2783,-4.2791,-4.2859,-4.2912,-4.2808,-4.2812,-4.304,-4.3046,-4.3051,-4.3141,0,0,0,0,0,0,-4.2692,-4.2706,-4.2743,-4.2751,-4.2762,-4.2856,-4.2781,-4.2777,-4.2798,-4.279,-4.2801,-4.2799,-4.2781,-4.2853,-4.2864,-4.2916,-4.2815,-4.3035,-4.3043,-4.3049,-4.3133,-4.3149,-4.3162,0,0,0,0,0,-4.2688,-4.2766,-4.2745,-4.2757,-4.2808,-4.2859,-4.2866,-4.2844,-4.2802,-4.2839,-4.2836,-4.2799,-4.2904,-4.2861,-4.2872,-4.2927,-4.3032,-4.304,-4.3049,-4.3127,-4.3146,-4.3162,0,0,0,0,0,0,-4.2764,-4.2767,-4.2743,-4.2827,-4.2844,-4.2848,-4.2893,-4.2865,-4.2893,-4.2884,-4.2855,-4.2859,-4.2933,-4.2936,-4.2888,-4.3021,-4.2961,-4.2972,-4.3016,-4.3034,-4.3049,-4.3047,-4.2819,0,0,0,0,0,-4.2791,-4.2833,-4.2833,-4.2907,-4.2916,-4.2904,-4.2925,-4.2907,-4.2923,-4.293,-4.2931,-4.2948,-4.2984,-4.3009,-4.3043,-4.3133,-4.3135,-4.3176,-4.3191,-4.3203,-4.3213,-4.3262,-4.3281,-4.3081,-4.308,-4.308,0,0,-4.2846,-4.2853,-4.2881,-4.2922,-4.2933,-4.2978,-4.291,-4.2959,-4.2992,-4.2937,-4.3002,-4.3004,-4.302,-4.3101,-4.3136,-4.3106,-4.3269,-4.3213,-4.3223,-4.3227,-4.3273,-4.3292,-4.3309,-4.3086,-4.3085,-4.3084,0,0,-4.297,-4.2979,-4.3042,-4.3055,-4.3072,-4.3064,-4.3079,-4.3087,-4.3087,-4.3152,-4.3112,-4.315,-4.3213,-4.3227,-4.3243,-4.3373,-4.3341,-4.3384,-4.3461,-4.3509,-4.3525,-4.3539,-4.3587,-4.3604,-4.3395,-4.3395,-4.3395,0,-4.3037,-4.3103,-4.3078,-4.3131,-4.3151,-4.3103,-4.3167,-4.318,-4.3207,-4.3222,-4.3188,-4.3268,-4.3275,-4.3359,-4.3391,-4.3404,-4.3421,-4.3384,-4.3525,-4.3538,-4.3551,-4.3596,-4.3614,-4.34,-4.3399,-4.3399,-4.3398,0,-4.3185,-4.3231,-4.3279,-4.3309,-4.3333,-4.3391,-4.3375,-4.3403,-4.3383,-4.3378,-4.3445,-4.3453,-4.3487,-4.3505,-4.3486,-4.3587,-4.3567,-4.353,-4.3469,-4.3576,-4.3618,-4.3635,-4.3408,-4.3406,-4.3404,-4.3403,0,0,-4.3358,-4.3373,-4.3392,-4.3405,-4.3421,-4.3456,-4.3512,-4.3547,-4.3572,-4.3592,-4.3639,-4.3694,-4.366,-4.3677,-4.3659,-4.3701,-4.3805,-4.3658,-4.3658,-4.3686,-4.3918,-4.3948,-4.3968,-4.3783,-4.3786,-4.3789,-4.3917,0,-4.3482,-4.358,-4.3559,-4.3655,-4.3698,-4.3654,-4.3702,-4.3718,-4.3714,-4.375,-4.3745,-4.3786,-4.3737,-4.3747,-4.3787,-4.3784,-4.3852,-4.3774,-4.3827,-4.3829,-4.3826,-4.399,-4.4021,-4.4142,-4.3933,-4.3936,-4.3938,0,-4.364,-4.3668,-4.3768,-4.3779,-4.3796,-4.384,-4.3871,-4.3906,-4.3922,-4.3917,-4.3937,-4.391,-4.3966,-4.3904,-4.3981,-4.3929,-4.3949,-4.3951,-4.3955,-4.396,-4.3891,-4.4001,-4.418,-4.4199,-4.3964,-4.3962,-4.396,0,-4.3758,-4.3821,-4.3889,-4.3901,-4.3915,-4.3947,-4.3954,-4.3967,-4.399,-4.4016,-4.4031,-4.4063,-4.4082,-4.4107,-4.409,-4.4046,-4.417,-4.4106,-4.4168,-4.4169,-4.4197,-4.4196,-4.4383,-4.4208,-4.4207,-4.4207,-4.4207,0,-4.39,-4.3963,-4.3943,-4.3985,-4.4055,-4.4031,-4.41,-4.4102,-4.4114,-4.4156,-4.4119,-4.4158,-4.4133,-4.4171,-4.4157,-4.4224,-4.4232,-4.4229,-4.4225,-4.4234,-4.4234,-4.4247,-4.4239,-4.4212,-4.4211,-4.421,-4.4209,0,-4.4045,-4.4033,-4.4105,-4.4112,-4.4115,-4.4167,-4.4173,-4.4212,-4.4206,-4.426,-4.4271,-4.4261,-4.4304,-4.4289,-4.4334,-4.4325,-4.441,-4.4395,-4.4406,-4.4402,-4.4465,-4.446,-4.4669,-4.4696,-4.4502,-4.4503,-4.4505,0,-4.4136,-4.4184,-4.4197,-4.4223,-4.4233,-4.4275,-4.4298,-4.4276,-4.4301,-4.4324,-4.4361,-4.4401,-4.4431,-4.4502,-4.4499,-4.4533,-4.4519,-4.459,-4.4524,-4.4531,-4.4522,-4.452,-4.4526,-4.4604,-4.4606,-4.4608,-4.4609,0,-4.4301,-4.4293,-4.4329,-4.4363,-4.4392,-4.4417,-4.4439,-4.4462,-4.4441,-4.4472,-4.4516,-4.454,-4.4587,-4.4627,-4.4658,-4.4665,-4.4634,-4.463,-4.4646,-4.4656,-4.4661,-4.4661,-4.4443,-4.4625,-4.4624,-4.4622,-4.4622,-4.4621,-4.4423,-4.4464,-4.448,-4.4521,-4.4535,-4.4557,-4.4595,-4.4594,-4.463,-4.4668,-4.4652,-4.4703,-4.4718,-4.4758,-4.4769,-4.4808,-4.4781,-4.4804,-4.481,-4.4817,-4.4826,-4.4654,-4.4813,-4.4813,-4.4813,-4.4812,-4.4812,0,-4.4587,-4.4595,-4.4633,-4.4666,-4.4698,-4.4667,-4.469,-4.4719,-4.4764,-4.4782,-4.4813,-4.4864,-4.4903,-4.4903,-4.4939,-4.4971,-4.4958,-4.4981,-4.498,-4.4982,-4.4847,-4.483,-4.4992,-4.4991,-4.4991,-4.4991,-4.4991,-4.4991,-4.4676,-4.4745,-4.474,-4.4815,-4.4822,-4.4873,-4.4889,-4.4909,-4.4923,-4.4982,-4.5014,-4.5014,-4.5025,-4.5062,-4.5096,-4.5095,-4.5111,-4.514,-4.5134,-4.5009,-4.4991,-4.4974,-4.4958,-4.5144,-4.5144,-4.5266,-4.5267,-4.5268]}]]